Hourly Weather Bolshie Eysmonty

Today, 17 June, Thursday

Time Temperature Precipitation Wind Pressure Humidity
00:00 +14°C° 0 mm 2 mps 754 mmHg 86%
01:00 +13°C° 0 mm 2 mps 754 mmHg 87%
02:00 +12°C° 0 mm 2 mps 755 mmHg 88%
03:00 +12°C° 0 mm 2 mps 755 mmHg 87%
04:00 +12°C° 0 mm 2 mps 755 mmHg 86%
05:00 +12°C° 0 mm 2 mps 755 mmHg 86%
06:00 +14°C° 0 mm 2 mps 755 mmHg 80%
07:00 +16°C° 0 mm 2 mps 755 mmHg 75%
08:00 +18°C° 0 mm 2 mps 755 mmHg 69%
09:00 +20°C° 0 mm 2 mps 756 mmHg 66%
10:00 +21°C° 0 mm 3 mps 756 mmHg 62%
11:00 +24°C° 0 mm 3 mps 756 mmHg 59%
12:00 +24°C° 0 mm 3 mps 756 mmHg 56%
13:00 +25°C° 0 mm 2 mps 756 mmHg 54%
14:00 +26°C° 0 mm 2 mps 756 mmHg 52%
15:00 +26°C° 0 mm 3 mps 756 mmHg 53%
16:00 +26°C° 0 mm 3 mps 756 mmHg 55%
17:00 +25°C° 0 mm 3 mps 755 mmHg 56%
18:00 +24°C° 0 mm 3 mps 755 mmHg 63%
19:00 +22°C° 0 mm 3 mps 755 mmHg 70%
20:00 +20°C° 0 mm 2 mps 755 mmHg 77%
21:00 +19°C° 0 mm 2 mps 756 mmHg 79%
22:00 +18°C° 0 mm 2 mps 756 mmHg 81%
23:00 +17°C° 0 mm 2 mps 756 mmHg 84%

Tomorrow, 18 June, Friday

Time Temperature Precipitation Wind Pressure Humidity
00:00 +16°C° 0 mm 2 mps 756 mmHg 85%
01:00 +16°C° 0 mm 2 mps 756 mmHg 87%
02:00 +15°C° 0 mm 2 mps 756 mmHg 89%
03:00 +15°C° 0 mm 2 mps 756 mmHg 89%
04:00 +15°C° 0 mm 2 mps 756 mmHg 90%
05:00 +15°C° 0 mm 2 mps 756 mmHg 90%
06:00 +17°C° 0 mm 3 mps 756 mmHg 84%
07:00 +19°C° 0 mm 3 mps 756 mmHg 78%
08:00 +21°C° 0 mm 3 mps 756 mmHg 72%
09:00 +22°C° 0 mm 3 mps 756 mmHg 67%
10:00 +23°C° 0 mm 4 mps 756 mmHg 62%
11:00 +26°C° 0 mm 4 mps 756 mmHg 58%
12:00 +26°C° 0 mm 4 mps 756 mmHg 55%
13:00 +26°C° 0 mm 4 mps 756 mmHg 53%
14:00 +27°C° 0 mm 4 mps 755 mmHg 50%
15:00 +27°C° 0 mm 3 mps 755 mmHg 53%
16:00 +27°C° 0 mm 3 mps 755 mmHg 55%
17:00 +27°C° 0 mm 3 mps 755 mmHg 57%
18:00 +25°C° 0 mm 3 mps 755 mmHg 64%
19:00 +24°C° 0 mm 3 mps 755 mmHg 72%
20:00 +21°C° 0 mm 3 mps 755 mmHg 80%
21:00 +20°C° 0 mm 3 mps 755 mmHg 82%
22:00 +19°C° 0 mm 3 mps 755 mmHg 84%
23:00 +18°C° 0 mm 3 mps 755 mmHg 87%

Day after tomorrow, 19 June, Saturday

Time Temperature Precipitation Wind Pressure Humidity
00:00 +18°C° 0 mm 3 mps 755 mmHg 88%
01:00 +17°C° 0 mm 3 mps 755 mmHg 89%
02:00 +17°C° 0 mm 2 mps 754 mmHg 90%
03:00 +17°C° 0 mm 2 mps 755 mmHg 91%
04:00 +17°C° 0 mm 2 mps 755 mmHg 92%
05:00 +17°C° 0 mm 2 mps 755 mmHg 93%
06:00 +19°C° 0 mm 3 mps 755 mmHg 88%
07:00 +21°C° 0 mm 3 mps 755 mmHg 83%
08:00 +24°C° 0 mm 3 mps 755 mmHg 78%
09:00 +25°C° 0 mm 4 mps 755 mmHg 73%
10:00 +26°C° 0 mm 4 mps 754 mmHg 69%
11:00 +27°C° 0 mm 4 mps 754 mmHg 64%
12:00 +28°C° 0 mm 4 mps 754 mmHg 62%
13:00 +28°C° 0 mm 4 mps 754 mmHg 60%
14:00 +29°C° 0 mm 4 mps 753 mmHg 57%
15:00 +28°C° 0 mm 3 mps 753 mmHg 60%
16:00 +28°C° 0 mm 3 mps 753 mmHg 62%
17:00 +28°C° 0 mm 3 mps 753 mmHg 65%
18:00 +27°C° 0 mm 3 mps 753 mmHg 70%
19:00 +25°C° 0 mm 2 mps 753 mmHg 75%
20:00 +24°C° 0 mm 2 mps 753 mmHg 80%
21:00 +23°C° 0 mm 2 mps 753 mmHg 82%
22:00 +21°C° 0 mm 2 mps 753 mmHg 85%
23:00 +20°C° 0 mm 3 mps 753 mmHg 87%

20 June, Sunday

Time Temperature Precipitation Wind Pressure Humidity
00:00 +19°C° 0 mm 2 mps 753 mmHg 88%
01:00 +18°C° 0 mm 2 mps 753 mmHg 89%
02:00 +18°C° 0 mm 2 mps 753 mmHg 90%
03:00 +18°C° 0 mm 2 mps 753 mmHg 90%
04:00 +18°C° 0 mm 2 mps 753 mmHg 91%
05:00 +18°C° 0 mm 2 mps 753 mmHg 91%
06:00 +20°C° 0 mm 2 mps 753 mmHg 86%
07:00 +21°C° 0 mm 3 mps 753 mmHg 81%
08:00 +24°C° 0 mm 3 mps 752 mmHg 75%
09:00 +25°C° 0.1 mm 3 mps 752 mmHg 71%
10:00 +26°C° 0.1 mm 4 mps 752 mmHg 68%
11:00 +27°C° 0.1 mm 4 mps 752 mmHg 64%
12:00 +28°C° 0.4 mm 4 mps 752 mmHg 62%
13:00 +28°C° 0.4 mm 4 mps 752 mmHg 61%
14:00 +28°C° 0.4 mm 3 mps 751 mmHg 59%
15:00 +28°C° 0.3 mm 3 mps 751 mmHg 61%
16:00 +28°C° 0.3 mm 3 mps 751 mmHg 62%
17:00 +28°C° 0.3 mm 2 mps 751 mmHg 64%
18:00 +27°C° 0 mm 2 mps 751 mmHg 69%
19:00 +25°C° 0 mm 2 mps 751 mmHg 74%
20:00 +24°C° 0 mm 2 mps 751 mmHg 79%
21:00 +23°C° 0 mm 2 mps 751 mmHg 82%
22:00 +21°C° 0 mm 2 mps 751 mmHg 85%
23:00 +20°C° 0 mm 3 mps 751 mmHg 89%

21 June, Monday

Time Temperature Precipitation Wind Pressure Humidity
00:00 +20°C° 0 mm 2 mps 751 mmHg 90%
01:00 +19°C° 0 mm 2 mps 751 mmHg 91%
02:00 +19°C° 0 mm 2 mps 751 mmHg 92%
03:00 +19°C° 0 mm 2 mps 751 mmHg 92%
04:00 +19°C° 0 mm 2 mps 751 mmHg 92%
05:00 +19°C° 0 mm 2 mps 751 mmHg 92%
06:00 +21°C° 0 mm 3 mps 751 mmHg 87%
07:00 +22°C° 0 mm 3 mps 751 mmHg 81%
08:00 +25°C° 0 mm 4 mps 751 mmHg 76%
09:00 +26°C° 0 mm 4 mps 750 mmHg 71%
10:00 +27°C° 0 mm 5 mps 750 mmHg 66%
11:00 +28°C° 0 mm 5 mps 750 mmHg 62%
12:00 +29°C° 0 mm 5 mps 750 mmHg 59%
13:00 +29°C° 0 mm 5 mps 750 mmHg 57%
14:00 +30°C° 0 mm 5 mps 750 mmHg 54%
15:00 +29°C° 0 mm 4 mps 750 mmHg 57%
16:00 +29°C° 0 mm 4 mps 749 mmHg 60%
17:00 +29°C° 0 mm 3 mps 749 mmHg 63%
18:00 +28°C° 0 mm 3 mps 749 mmHg 68%
19:00 +26°C° 0 mm 3 mps 749 mmHg 74%
20:00 +25°C° 0 mm 3 mps 749 mmHg 80%
21:00 +24°C° 0 mm 3 mps 749 mmHg 83%
22:00 +22°C° 0 mm 3 mps 749 mmHg 85%
23:00 +21°C° 0 mm 3 mps 749 mmHg 88%

22 June, Tuesday

Time Temperature Precipitation Wind Pressure Humidity
00:00 +21°C° 0 mm 3 mps 749 mmHg 89%
01:00 +20°C° 0 mm 3 mps 748 mmHg 91%
02:00 +20°C° 0 mm 3 mps 748 mmHg 93%
03:00 +20°C° 0 mm 3 mps 748 mmHg 93%
04:00 +20°C° 0 mm 3 mps 748 mmHg 94%
05:00 +20°C° 0 mm 3 mps 748 mmHg 94%
06:00 +21°C° 0 mm 4 mps 748 mmHg 88%
07:00 +23°C° 0 mm 4 mps 748 mmHg 83%
08:00 +25°C° 0 mm 5 mps 748 mmHg 78%
09:00 +27°C° 0 mm 5 mps 748 mmHg 74%
10:00 +28°C° 0 mm 6 mps 748 mmHg 70%
11:00 +29°C° 0 mm 6 mps 748 mmHg 66%
12:00 +30°C° 0 mm 6 mps 748 mmHg 63%
13:00 +30°C° 0 mm 6 mps 748 mmHg 61%
14:00 +32°C° 0 mm 5 mps 748 mmHg 58%
15:00 +32°C° 0.4 mm 5 mps 748 mmHg 61%
16:00 +30°C° 0.4 mm 4 mps 748 mmHg 64%
17:00 +30°C° 0.4 mm 4 mps 748 mmHg 68%
18:00 +29°C° 0.2 mm 3 mps 748 mmHg 71%
19:00 +28°C° 0.2 mm 3 mps 748 mmHg 75%
20:00 +27°C° 0.2 mm 2 mps 748 mmHg 79%
21:00 +25°C° 0 mm 3 mps 748 mmHg 81%
22:00 +24°C° 0 mm 3 mps 748 mmHg 84%
23:00 +22°C° 0 mm 3 mps 748 mmHg 86%
Show more